This demonstration page uses our WeatherBlox Daily Observations layout. Learn more.

Left ArrowRight Arrow

Hourly Observations for May 10, 2022

Temp ( °F °C ) Dew Point ( °F °C ) Humidity (%) Winds ( mph kmh ) Pressure ( in mb ) Visibility ( mi km ) Precip ( " mm )
12:15 am 00:15 Clear 68 19.9 56 13.5 67 67 SSE 13 20 30.01 1016 10 16 0.00 0.00
12:35 am 00:35 Clear 67 19.5 56 13.6 69 69 SSE 13 20 30.01 1016 10 16 0.00 0.00
12:55 am 00:55 Clear 66 19.1 56 13.6 71 71 S 10 17 30.01 1016 10 16 0.00 0.00
1:15 am 01:15 Clear 66 19.1 56 13.6 71 71 SSE 10 17 30.02 1017 10 16 0.00 0.00
1:35 am 01:35 Clear 66 19.1 56 13.6 71 71 SSE 12 19 30.02 1017 10 16 0.00 0.00
1:55 am 01:55 Clear 65 18.6 56 13.6 73 73 SSE 8 13 30.03 1017 10 16 0.00 0.00
2:15 am 02:15 Clear 65 18.3 56 13.6 74 74 Calm 30.04 1017 10 16 0.00 0.00
2:35 am 02:35 Partly Cloudy 65 18.2 56 13.6 75 75 Calm 30.04 1017 10 16 0.00 0.00
2:55 am 02:55 Partly Cloudy 64 17.9 56 13.6 76 76 Calm 30.05 1018 10 16 0.00 0.00
3:15 am 03:15 Clear 64 17.6 56 13.6 78 78 Calm 30.06 1018 10 16 0.00 0.00
3:35 am 03:35 Clear 63 17.2 56 13.6 80 80 SE 5 7 30.08 1018 10 16 0.00 0.00
3:55 am 03:55 Partly Cloudy 63 17.3 57 13.7 80 80 SE 8 13 30.09 1019 10 16 0.00 0.00
4:15 am 04:15 Cloudy 64 18 57 14 78 78 SE 7 11 30.09 1019 10 16 0.00 0.00
4:35 am 04:35 Cloudy 65 18.2 57 14 77 77 Calm 30.09 1019 10 16 0.00 0.00
4:55 am 04:55 Cloudy 65 18.2 57 14 77 77 Calm 30.09 1019 10 16 0.00 0.00
5:15 am 05:15 Cloudy 65 18.3 57 14 76 76 SSE 8 13 30.09 1019 10 16 0.00 0.00
5:35 am 05:35 Cloudy 65 18.2 57 14.1 77 77 SSE 9 15 30.09 1019 10 16 0.00 0.00
5:55 am 05:55 Cloudy 65 18.2 57 14.1 77 77 Calm 30.09 1019 10 16 0.00 0.00
6:15 am 06:15 Cloudy 65 18.3 57 14.1 77 77 SSE 7 11 30.10 1019 10 16 0.00 0.00
6:35 am 06:35 Cloudy 65 18.2 58 14.2 78 78 SSE 7 11 30.10 1019 10 16 0.00 0.00
6:55 am 06:55 Cloudy 65 18.2 58 14.3 78 78 SSE 7 11 30.10 1019 10 16 0.00 0.00
7:15 am 07:15 Cloudy 65 18.3 58 14.5 79 79 SSE 8 13 30.10 1019 10 16 0.00 0.00
7:35 am 07:35 Cloudy 65 18.5 58 14.6 78 78 S 9 15 30.10 1019 10 16 0.00 0.00
7:55 am 07:55 Cloudy 66 18.8 59 14.8 78 78 S 10 17 30.11 1020 10 16 0.00 0.00
8:15 am 08:15 Cloudy 66 19 59 15 78 78 S 10 17 30.11 1020 10 16 0.00 0.00
8:35 am 08:35 Cloudy 66 19.1 59 15.1 78 78 S 8 13 30.12 1020 10 16 0.00 0.00
8:55 am 08:55 Cloudy 67 19.2 60 15.3 78 78 S 10 17 30.12 1020 10 16 0.00 0.00
9:15 am 09:15 Cloudy 68 19.8 60 15.5 76 76 S 9 15 30.13 1020 10 16 0.00 0.00
9:35 am 09:35 Cloudy 68 19.8 60 15.7 77 77 SSE 10 17 30.14 1021 10 16 0.00 0.00
9:55 am 09:55 Cloudy 68 20.1 61 16 77 77 SSE 10 17 30.14 1021 10 16 0.00 0.00
10:15 am 10:15 Cloudy 69 20.6 61 16.1 76 76 S 12 19 30.12 1020 10 16 0.00 0.00
10:35 am 10:35 Cloudy 71 21.6 62 16.6 73 73 S 13 20 30.12 1020 10 16 0.00 0.00
10:55 am 10:55 Cloudy 72 22 62 16.7 72 72 S 12 19 30.13 1020 10 16 0.00 0.00
11:15 am 11:15 Cloudy 73 22.6 63 17 71 71 S 10 17 30.13 1020 10 16 0.00 0.00
11:35 am 11:35 Cloudy 74 23.1 64 17.6 71 71 SSW 13 20 30.13 1020 10 16 0.00 0.00
11:55 am 11:55 Cloudy 74 23.6 64 18 71 71 SSW 12 19 30.12 1020 10 16 0.00 0.00
12:15 pm 12:15 Mostly Cloudy 77 24.9 65 18.5 68 68 S 14 22 30.11 1020 10 16 0.00 0.00
12:35 pm 12:35 Partly Cloudy 78 25.5 66 18.8 67 67 S 8 13 30.10 1019 10 16 0.00 0.00
12:55 pm 12:55 Sunny 79 26 66 18.9 65 65 SSE 12 19 30.10 1019 10 16 0.00 0.00
1:15 pm 13:15 Sunny 80 26.5 67 19.3 65 65 SSW 9 15 30.10 1019 10 16 0.00 0.00
1:35 pm 13:35 Sunny 80 26.7 67 19.5 65 65 SSW 8 13 30.08 1019 10 16 0.00 0.00
1:55 pm 13:55 Sunny 82 27.5 68 19.9 63 63 S 9 15 30.08 1019 10 16 0.00 0.00
2:15 pm 14:15 Sunny 82 27.6 68 19.9 63 63 SSW 10 17 30.07 1018 10 16 0.00 0.00
2:35 pm 14:35 Sunny 82 28 68 20.2 63 63 S 10 17 30.07 1018 10 16 0.00 0.00
2:55 pm 14:55 Partly Cloudy 82 28 69 20.5 64 64 SSW 7 11 30.07 1018 10 16 0.00 0.00
3:15 pm 15:15 Partly Cloudy 83 28.5 69 20.4 62 62 SSW 9 15 30.06 1018 10 16 0.00 0.00
3:35 pm 15:35 Partly Cloudy 83 28.6 69 20.3 61 61 S 10 17 30.06 1018 10 16 0.00 0.00
3:55 pm 15:55 Mostly Cloudy 85 29.2 69 20.5 59 59 S 13 20 30.06 1018 10 16 0.00 0.00
4:15 pm 16:15 Mostly Cloudy 84 28.8 69 20.7 62 62 S 9 15 30.05 1018 10 16 0.00 0.00
4:35 pm 16:35 Partly Cloudy 84 28.9 69 20.5 61 61 SSW 15 24 30.05 1018 10 16 0.00 0.00
4:55 pm 16:55 Partly Cloudy 84 28.9 69 20.3 60 60 SSW 13 20 30.04 1017 10 16 0.00 0.00
5:15 pm 17:15 Mostly Cloudy 86 29.9 68 20.2 56 56 S 9 15 30.03 1017 10 16 0.00 0.00
5:35 pm 17:35 Cloudy 83 28.5 68 19.8 59 59 SSW 5 7 30.05 1018 10 16 0.00 0.00
5:55 pm 17:55 Mostly Cloudy 83 28.5 68 20.1 60 60 SSW 9 15 30.05 1018 10 16 0.00 0.00
6:15 pm 18:15 Mostly Cloudy 84 28.7 68 20.1 60 60 SSW 9 15 30.05 1018 10 16 0.00 0.00
6:35 pm 18:35 Mostly Cloudy 84 29.1 68 20.1 58 58 S 10 17 30.05 1017 10 16 0.00 0.00
6:55 pm 18:55 Partly Cloudy 83 28.5 68 20 60 60 SSW 10 17 30.05 1018 10 16 0.00 0.00
7:15 pm 19:15 Mostly Cloudy 83 28.1 68 20 61 61 S 7 11 30.05 1018 10 16 0.00 0.00
7:35 pm 19:35 Mostly Cloudy 83 28.5 68 20.1 60 60 S 3 6 30.05 1018 10 16 0.00 0.00
7:55 pm 19:55 Mostly Cloudy 83 28.4 68 19.9 60 60 S 6 9 30.05 1018 10 16 0.00 0.00
8:15 pm 20:15 Partly Cloudy 81 27 67 19.7 64 64 S 6 9 30.06 1018 10 16 0.00 0.00
8:35 pm 20:35 Sunny 79 26.1 67 19.5 67 67 S 7 11 30.07 1018 10 16 0.00 0.00
8:55 pm 20:55 Clear 76 24.5 67 19.5 74 74 Calm 30.07 1018 10 16 0.00 0.00
9:15 pm 21:15 Clear 78 25.3 68 19.8 72 72 SSE 8 13 30.07 1018 10 16 0.00 0.00
9:35 pm 21:35 Partly Cloudy 77 25 68 19.8 73 73 SSE 7 11 30.07 1018 10 16 0.00 0.00
9:55 pm 21:55 Mostly Cloudy 76 24.6 68 19.8 75 75 SSE 7 11 30.08 1019 10 16 0.00 0.00
10:15 pm 22:15 Cloudy 76 24.6 67 19.7 74 74 Calm 30.09 1019 10 16 0.00 0.00
10:35 pm 22:35 Cloudy 75 24.1 67 19.6 76 76 Calm 30.10 1019 10 16 0.00 0.00
10:55 pm 22:55 Partly Cloudy 74 23.6 67 19.5 78 78 SSE 7 11 30.10 1019 10 16 0.00 0.00
11:15 pm 23:15 Partly Cloudy 74 23.1 67 19.3 79 79 Calm 30.11 1020 10 16 0.00 0.00
11:35 pm 23:35 Partly Cloudy 73 22.5 67 19.2 82 82 Calm 30.11 1020 10 16 0.00 0.00
11:55 pm 23:55 Partly Cloudy 73 22.5 67 19.2 82 82 SSE 6 9 30.11 1020 10 16 0.00 0.00

Powered by AerisWeather